This demonstration page uses our WeatherBlox Daily Observations layout. Learn more.

Left ArrowRight Arrow

34.16533, -84.80231

Hourly Observations for March 10, 2020

Temp ( °F °C ) Dew Point ( °F °C ) Humidity (%) Winds ( mph kmh ) Pressure ( in mb ) Visibility ( mi km ) Precip ( " mm )
12:53 am 00:53 Clear 59 15 46 7.8 62 62 SSE 6 9 30.35 1028 10 16 0.00 0.00
1:53 am 01:53 Clear 61 16.1 46 7.8 58 58 SSE 10 17 30.32 1027 10 16 0.00 0.00
2:53 am 02:53 Clear 61 16.1 46 7.8 58 58 S 5 7 30.32 1027 10 16 0.00 0.00
3:53 am 03:53 Clear 60 15.6 47 8.3 62 62 Calm 30.31 1027 10 16 0.00 0.00
4:53 am 04:53 Cloudy 58 14.4 47 8.3 67 67 SSE 6 9 30.30 1026 10 16 0.00 0.00
5:53 am 05:53 Cloudy with Light Rain 57 13.9 49 9.4 74 74 SSE 6 9 30.30 1026 10 16 0.00 0.00
6:53 am 06:53 Cloudy with Light Rain 54 12.2 51 10.6 90 90 Calm 30.32 1027 10 16 0.03 0.76
7:53 am 07:53 Cloudy with Light Rain 54 12.2 52 11.1 93 93 Calm 30.32 1027 8 13 0.01 0.25
8:53 am 08:53 Cloudy 55 12.8 52 11.1 90 90 Calm 30.35 1028 9 14 0.08 2.03
9:17 am 09:17 Cloudy with Rain 54 12.2 52 11.1 93 93 Calm 30.37 1029 2 3 0.03 0.76
9:29 am 09:29 Cloudy with Rain 55 12.8 53 11.7 93 93 Calm 30.38 1029 2 2 0.06 1.52
9:45 am 09:45 Cloudy with Light Rain 55 12.8 53 11.7 93 93 Calm 30.37 1029 3 4 0.07 1.78
9:53 am 09:53 Cloudy with Light Rain 55 12.8 53 11.7 93 93 Calm 30.35 1028 3 5 0.08 2.03
10:23 am 10:23 Cloudy with Light Rain 56 13.3 53 11.7 90 90 Calm 30.37 1028 4 6 0.01 0.25
10:47 am 10:47 Cloudy with Light Rain 55 13 54 12 94 94 Calm 30.37 1028 3 5 0.02 0.51
10:53 am 10:53 Cloudy with Light Rain 56 13.3 54 12.2 93 93 Calm 30.36 1028 4 6 0.02 0.51
11:04 am 11:04 Cloudy with Light Rain 56 13.3 54 12.2 93 93 Calm 30.37 1028 2 3 0.01 0.25
11:20 am 11:20 Cloudy with Light Rain 57 13.9 54 12.2 90 90 Calm 30.37 1028 3 5 0.01 0.25
11:53 am 11:53 Cloudy 58 14.4 55 12.8 90 90 S 3 6 30.34 1027 7 11 0.02 0.51
12:20 pm 12:20 Cloudy 60 15.6 55 12.8 84 84 S 5 7 30.34 1028 10 16 0.00 0.00
12:40 pm 12:40 Cloudy 60 15.6 55 12.8 84 84 VRB 3 6 30.34 1028 10 16 0.00 0.00
12:53 pm 12:53 Cloudy 61 16.1 55 12.8 81 81 Calm 30.32 1027 10 16 0.00 0.00
1:53 pm 13:53 Cloudy 64 17.8 54 12.2 70 70 VRB 7 11 30.29 1026 10 16 0.00 0.00
2:53 pm 14:53 Cloudy 67 19.4 56 13.3 68 68 VRB 6 9 30.25 1024 10 16 0.00 0.00
3:53 pm 15:53 Cloudy 68 20 56 13.3 65 65 WSW 8 13 30.23 1024 10 16 0.00 0.00
4:53 pm 16:53 Cloudy 68 20 56 13.3 65 65 S 7 11 30.21 1023 10 16 0.00 0.00
5:53 pm 17:53 Cloudy 67 19.4 55 12.8 66 66 VRB 3 6 30.21 1023 10 16 0.00 0.00
6:27 pm 18:27 Cloudy 67 19.4 56 13.3 68 68 VRB 5 7 30.21 1023 10 16 0.00 0.00
6:53 pm 18:53 Cloudy 66 18.9 56 13.3 70 70 VRB 5 7 30.21 1023 10 16 0.00 0.00
7:35 pm 19:35 Cloudy 65 18.3 56 13.3 73 73 SSW 5 7 30.23 1024 10 16 0.00 0.00
7:53 pm 19:53 Cloudy 65 18.3 56 13.3 73 73 VRB 5 7 30.22 1023 10 16 0.00 0.00
8:53 pm 20:53 Mostly Cloudy 63 17.2 56 13.3 78 78 S 5 7 30.21 1023 10 16 0.00 0.00
9:02 pm 21:02 Partly Cloudy 63 17.2 56 13.3 78 78 S 6 9 30.22 1023 10 16 0.00 0.00
9:53 pm 21:53 Clear 59 15 55 12.8 87 87 Calm 30.22 1023 10 16 0.00 0.00
10:53 pm 22:53 Clear 56 13.3 54 12.2 93 93 Calm 30.22 1023 8 13 0.00 0.00
11:53 pm 23:53 Clear with Mist and Fog 53 11.7 51 10.6 93 93 Calm 30.21 1023 6 10 0.00 0.00

Powered by AerisWeather